Temperature
30 31 31 32 32 33 32 32 32 32 32 31 31 31 31 29 28 28 27 26 25 24 24 23 22 21 20 20 20 19 19 19 19 18 18 18 18 18 18 18 18 18 18 18
30 31 32 32 32 32 32 31 32 32 31 31 31 31 31 30 29 28 27 26 26 25 24 23 22 21 21 20 20 20 20 19 19 19 19 18 18 18 18 18 18 18 18 18
30 31 32 31 31 31 31 31 32 31 31 31 31 31 31 31 29 28 27 27 26 25 24 23 22 21 21 20 20 20 19 19 19 19 18 18 18 18 18 18 18 18 18 18
31 31 31 31 31 31 31 32 31 31 31 31 31 31 31 31 30 29 28 27 26 26 25 24 22 22 21 21 20 20 20 20 20 19 19 18 18 18 18 18 18 18 18 18
30 31 30 30 31 31 31 31 31 31 31 31 31 31 32 31 30 30 29 27 26 26 25 24 23 22 22 21 20 20 20 20 20 19 19 19 19 18 18 18 18 18 18 18
30 30 31 31 31 31 31 30 30 31 31 30 31 30 31 32 31 31 30 28 26 26 25 24 23 22 21 21 20 20 20 20 20 19 19 19 19 18 18 18 18 18 18 18
29 30 30 30 30 30 30 30 29 29 29 30 31 30 31 31 31 31 30 28 27 26 25 24 23 22 22 21 21 20 20 20 20 19 19 19 19 18 18 18 18 18 18 18
29 29 30 30 30 30 30 30 29 28 29 31 30 30 31 31 30 30 29 28 27 26 25 24 23 22 22 21 21 20 20 20 20 19 19 19 19 18 18 18 18 18 18 18
29 29 30 30 30 30 30 30 31 30 30 30 31 30 30 30 30 30 29 28 27 26 25 24 23 23 22 21 21 21 20 20 20 19 19 19 19 18 18 18 18 18 18 18
29 28 30 29 30 29 30 30 30 30 28 28 30 30 31 30 30 30 29 28 26 26 25 24 23 23 22 22 21 20 20 20 20 20 19 19 19 19 18 18 18 18 18 18
29 28 29 29 29 29 29 29 29 30 29 29 29 30 31 30 29 29 28 27 26 25 25 24 23 22 22 21 21 20 20 20 19 19 19 19 19 19 18 18 18 18 18 18
28 28 28 29 29 29 29 29 29 28 28 28 29 30 30 29 29 28 27 26 25 24 24 23 22 22 21 21 20 20 19 19 19 19 19 19 19 18 18 18 18 18 18 18
27 27 26 27 28 28 28 29 29 29 29 29 29 29 29 28 28 27 26 25 24 23 22 22 22 21 21 20 20 19 19 19 19 19 19 19 18 18 18 18 18 18 18 18
25 27 27 27 28 29 28 28 28 29 29 29 29 29 29 28 27 26 25 24 23 22 21 21 21 20 20 19 19 19 19 19 19 18 18 18 18 18 18 18 18 18 17 17
26 26 26 27 28 28 28 28 28 28 28 28 29 29 29 28 27 25 24 23 22 22 21 20 20 20 19 19 19 19 19 19 18 18 18 17 17 17 17 17 17 17 17 17
25 25 25 26 27 27 27 27 28 28 28 28 28 28 28 27 25 24 23 23 22 21 21 20 19 19 19 18 18 18 18 18 18 18 17 17 17 17 17 17 17 17 17 17
24 24 24 25 26 26 26 27 27 27 28 28 28 28 27 26 25 24 23 22 22 21 20 19 19 18 18 18 18 18 18 17 17 17 17 17 17 17 16 16 16 16 16 16
23 23 24 25 24 24 27 27 27 27 27 27 27 26 26 25 24 23 22 22 21 20 20 19 19 18 18 18 17 17 17 17 17 17 17 16 16 16 16 16 16 16 16 16
23 22 23 24 24 25 26 26 26 26 26 26 26 26 25 23 22 22 21 21 20 20 19 18 18 18 18 17 17 17 17 17 16 16 16 16 16 16 15 16 16 16 15 15
22 22 23 23 23 24 26 25 25 25 25 25 25 24 24 23 24 24 21 20 19 18 18 18 18 17 17 17 16 16 16 16 16 16 16 16 15 15 15 15 15 15 15 15
21 21 22 22 23 24 25 24 24 24 24 23 23 23 22 23 23 21 19 18 18 17 17 17 17 17 16 16 16 16 16 16 16 16 15 15 15 15 15 15 15 14 14 14
22 22 21 22 22 23 23 23 23 23 22 22 22 22 21 20 19 19 18 17 17 16 16 16 16 16 16 15 15 15 15 15 15 15 15 15 15 15 14 14 14 14 14 14
21 22 23 22 22 21 20 21 20 20 21 20 20 20 19 19 18 18 17 17 16 16 15 15 15 15 15 15 15 15 15 14 14 14 14 14 14 14 14 14 14 13 13 13
20 20 20 21 21 20 20 19 19 19 19 19 19 19 18 18 18 17 17 16 16 15 15 15 15 14 14 14 14 14 14 14 14 14 14 14 14 13 13 13 13 13 13 13
19 19 20 19 20 19 19 18 18 17 18 18 18 18 17 17 17 16 16 15 15 15 14 14 14 14 13 13 13 13 13 13 13 13 13 13 13 13 13 13 13 13 13 13
19 19 19 19 19 19 18 17 17 17 17 17 17 16 16 16 16 15 15 15 14 14 14 14 13 13 13 13 13 13 13 13 13 12 12 13 13 13 13 12 12 12 12 12
Wind_Speed
10 12 13 11 12 9 7 8 7 4 4 7 8 7 6 9 10 11 11 12 12 12 12 12 13 13 12 11 11 11 10 9 8 7 7 6 6 5 5 5 5 6 5 5
11 15 11 8 9 9 9 10 8 5 4 6 7 8 7 9 11 11 12 12 12 12 13 13 13 13 13 13 12 11 11 10 10 7 6 5 5 5 5 4 5 6 6 6
18 10 9 10 11 11 11 11 9 6 5 7 7 9 9 9 10 10 11 11 12 13 14 14 14 14 14 14 13 12 11 11 10 9 7 6 5 5 5 5 5 6 6 6
15 11 9 12 12 12 12 9 8 8 9 8 8 9 7 9 9 10 11 12 12 13 13 14 14 15 14 14 13 13 12 11 11 10 9 9 8 7 6 5 5 5 6 6
12 12 12 14 12 11 9 4 7 9 11 11 9 10 7 7 9 9 10 12 12 13 13 14 15 15 14 13 12 12 12 11 11 11 10 10 9 7 6 5 5 5 5 5
10 9 10 11 9 8 6 6 6 10 12 14 12 11 9 7 7 6 7 9 11 12 12 13 13 13 13 13 12 12 12 11 11 11 11 11 10 8 7 7 6 6 5 5
13 12 10 9 10 10 10 10 9 10 11 12 8 10 8 4 5 5 5 6 9 11 11 13 14 14 14 14 14 13 13 12 12 12 11 11 10 10 9 8 7 6 5 5
15 14 13 11 12 11 13 14 12 11 12 10 8 10 5 3 3 4 4 4 6 9 10 12 13 14 13 14 14 14 14 13 12 12 11 10 10 9 8 8 7 7 5 5
11 12 10 11 11 12 13 13 13 13 14 12 9 8 7 6 5 5 4 4 5 7 9 11 12 12 13 13 14 14 14 13 12 12 11 10 10 8 7 7 7 6 5 5
9 9 10 10 10 10 11 11 10 12 12 13 12 13 9 8 8 5 3 3 3 5 7 9 9 10 11 12 13 13 13 13 12 11 10 8 9 9 8 7 6 6 5 5
11 11 11 11 12 12 11 12 11 11 12 13 13 8 3 5 5 4 2 1 1 3 5 7 8 9 9 10 11 11 11 11 10 10 9 8 8 8 8 7 7 6 6 6
9 10 12 13 10 8 12 13 14 13 12 12 13 8 2 3 3 3 2 0 1 2 3 4 6 7 8 9 10 10 10 10 10 9 9 9 8 8 8 8 7 7 7 7
7 8 11 13 12 11 13 14 15 14 13 13 15 9 5 4 3 3 2 0 1 2 2 4 5 7 7 8 8 9 10 10 10 10 9 9 9 8 8 8 7 7 7 7
6 11 14 15 10 10 13 15 15 16 15 15 16 13 7 6 6 4 3 1 1 2 2 3 4 5 6 7 7 7 8 9 9 10 9 9 9 8 8 7 7 6 6 7
7 12 14 14 12 11 13 15 16 18 18 18 15 14 11 8 7 5 3 2 2 3 3 3 4 4 6 6 6 7 7 7 8 9 9 9 8 8 7 6 6 6 6 7
6 10 12 14 14 14 15 15 16 18 18 18 16 13 8 6 5 5 5 4 3 3 3 3 3 4 6 6 6 6 6 7 7 8 8 8 7 7 7 7 6 6 6 6
7 8 11 13 13 13 18 17 17 16 15 15 16 11 7 7 7 7 5 5 4 3 3 3 3 4 5 6 6 6 6 7 7 8 8 8 8 7 7 7 6 6 6 6
9 10 9 11 11 17 10 6 11 13 13 12 10 8 7 6 5 5 5 5 4 3 3 3 3 3 4 5 5 6 6 7 7 7 7 7 7 7 6 6 6 6 5 5
11 10 9 11 15 15 10 7 8 11 12 10 10 9 7 4 4 5 5 4 3 3 3 3 3 3 3 5 5 5 6 6 6 6 6 6 6 6 7 7 6 5 5 5
12 11 11 11 14 14 7 6 5 8 11 7 7 8 7 7 8 5 4 3 2 2 2 3 3 3 4 4 5 5 5 6 6 5 5 5 5 5 6 5 5 4 4 4
13 12 15 15 14 11 2 4 6 10 5 3 5 7 8 8 4 1 4 3 3 3 3 3 3 3 3 4 4 4 4 4 4 4 4 4 4 4 4 4 4 4 3 3
11 11 13 13 15 11 2 5 7 3 1 1 3 4 5 3 2 3 4 4 4 3 3 4 3 3 3 3 3 3 3 2 2 3 4 3 3 3 3 4 3 3 3 3
9 8 7 8 6 1 1 3 3 3 3 3 3 3 3 3 4 4 4 4 4 3 3 3 4 3 3 2 3 3 2 2 2 3 3 3 3 2 2 3 3 3 3 3
7 5 7 7 6 5 4 3 3 3 4 4 3 3 3 4 4 4 4 3 3 3 3 4 4 4 3 2 2 3 3 3 3 3 3 3 3 2 2 2 2 2 3 3
6 5 8 9 8 6 5 4 4 4 3 3 3 3 3 4 4 3 3 3 3 3 3 4 4 4 3 3 2 3 2 2 3 3 3 3 3 2 2 1 0 1 1 1
9 9 10 9 7 7 7 5 5 4 4 3 2 3 3 4 4 4 3 2 2 3 3 4 4 3 3 3 2 2 2 2 2 3 2 2 1 2 1 1 1 2 1 2
Wind_Direction
199 217 220 217 227 247 248 244 237 227 189 218 234 237 211 192 200 200 196 195 196 200 193 190 191 191 189 189 189 190 192 184 186 187 189 189 189 192 190 187 184 191 201 200
205 223 226 225 224 230 232 238 236 218 201 233 247 247 229 202 208 208 204 201 201 200 194 191 194 194 194 193 194 193 195 192 194 190 194 196 196 195 193 197 184 196 201 209
219 219 209 212 214 221 228 237 236 232 212 224 250 246 223 210 210 213 214 208 203 201 197 192 194 197 197 196 196 197 196 194 197 192 192 192 191 206 194 195 195 200 203 208
225 217 203 214 219 226 230 230 238 235 236 237 238 261 223 210 207 213 216 213 208 204 199 194 194 197 199 199 196 196 194 195 195 194 197 198 201 204 200 197 191 193 201 209
214 211 212 222 225 230 237 227 233 240 247 255 236 258 244 203 220 218 215 214 211 206 202 198 196 196 197 195 194 193 192 195 194 196 196 201 206 205 199 198 189 201 200 208
220 209 222 228 225 223 201 205 220 238 247 247 243 250 253 219 227 227 212 211 210 206 203 201 196 192 192 192 193 190 188 192 194 198 200 204 205 207 205 204 198 203 199 199
212 209 212 217 207 195 204 219 227 232 232 242 226 242 249 232 232 239 234 210 204 202 200 197 195 192 192 192 191 189 187 190 193 198 202 203 206 208 210 211 209 213 206 198
209 207 203 207 218 215 215 228 236 246 249 242 213 237 234 221 231 237 230 210 196 196 196 194 193 192 192 192 192 191 188 191 192 198 202 204 206 212 212 211 215 211 217 213
218 212 194 206 219 226 219 228 244 256 263 264 241 233 230 215 220 220 211 194 193 196 194 192 191 192 191 193 193 193 189 191 192 195 198 202 205 210 213 208 215 216 213 211
231 223 199 195 205 218 236 230 231 241 249 253 248 243 238 216 219 210 205 194 194 195 193 192 191 192 193 193 191 191 190 192 192 192 195 196 199 200 206 212 214 216 213 215
235 227 207 198 212 211 204 217 230 240 248 254 257 248 235 213 212 214 208 193 184 188 186 187 189 189 188 188 186 184 186 187 189 191 193 197 197 199 202 206 208 210 211 209
223 233 227 217 212 234 225 225 224 234 240 247 263 260 132 183 199 214 228 144 110 140 161 171 175 176 177 179 181 181 184 186 187 189 192 192 193 199 203 205 206 208 211 213
210 229 226 218 208 211 223 226 230 239 247 247 252 251 156 175 200 211 231 252 114 122 138 154 162 168 172 174 176 181 187 189 188 187 190 192 196 204 207 207 206 208 211 214
236 236 239 240 236 218 221 224 227 234 243 247 248 257 228 220 223 224 224 210 161 139 132 147 154 163 165 169 174 180 187 188 186 186 190 193 198 202 206 208 207 210 213 216
230 238 242 252 255 246 240 232 228 234 245 255 258 256 252 240 234 225 220 204 181 162 152 145 155 160 164 171 177 183 185 185 187 185 190 192 192 194 197 199 203 207 213 217
233 245 243 244 242 242 244 239 235 237 243 249 256 257 249 233 221 214 214 205 191 185 170 157 155 166 171 177 182 184 186 185 185 188 191 189 190 192 193 193 199 203 209 216
228 232 239 242 236 239 240 236 235 237 240 245 249 248 215 215 219 221 215 209 201 201 189 175 172 176 179 183 186 187 189 187 186 189 190 189 191 193 194 197 200 205 210 213
234 235 238 244 231 237 243 223 235 238 240 243 245 231 219 223 221 225 225 216 206 200 190 182 184 179 179 182 182 184 183 185 188 189 190 190 191 191 192 197 201 206 211 216
227 227 235 237 235 240 235 216 220 230 239 236 230 223 213 200 216 221 208 204 195 188 180 179 179 174 172 176 174 178 184 185 186 185 187 189 192 194 195 200 202 206 213 219
211 220 232 235 243 243 232 186 211 236 238 218 216 214 202 203 231 213 165 162 158 165 167 169 164 161 168 167 168 173 180 182 185 184 186 188 192 197 196 196 198 205 210 218
202 210 224 234 241 243 220 169 197 227 230 160 210 213 213 228 268 149 154 158 151 149 154 154 158 160 159 161 160 164 168 182 183 179 182 186 190 198 195 189 191 199 207 216
219 217 220 230 239 237 173 203 223 270 359 210 218 218 220 226 160 152 149 150 150 151 153 152 149 140 140 149 156 162 170 176 184 183 178 176 180 193 179 178 188 199 208 216
233 242 238 233 239 279 255 260 283 289 274 265 252 242 217 197 184 169 164 159 155 155 152 144 135 127 127 142 158 165 171 174 178 177 171 169 172 178 176 187 196 206 216 230
229 245 244 244 241 247 258 274 288 283 276 269 258 240 220 210 185 171 170 164 155 150 147 145 136 131 128 132 136 141 150 162 167 171 172 170 168 169 160 203 210 215 225 237
258 241 242 245 245 257 250 267 281 290 285 262 247 235 217 193 180 177 166 160 159 155 150 150 143 138 131 124 121 125 141 161 163 163 172 180 171 148 149 148 263 240 275 298
246 248 249 252 249 256 259 267 268 261 261 240 219 218 205 190 182 171 164 166 162 153 145 142 138 138 133 126 116 114 130 154 170 171 171 174 170 155 165 152 132 61 9 38
Height
1486 1485 1482 1479 1479 1478 1480 1482 1485 1483 1483 1487 1488 1488 1489 1495 1498 1500 1504 1507 1510 1513 1517 1520 1522 1525 1527 1528 1530 1531 1534 1535 1536 1538 1540 1541 1542 1543 1545 1546 1546 1547 1548 1549
1484 1482 1477 1477 1478 1481 1482 1485 1484 1483 1484 1487 1486 1486 1485 1490 1494 1497 1500 1503 1506 1510 1513 1516 1519 1522 1524 1526 1527 1529 1531 1533 1535 1537 1538 1540 1542 1543 1544 1545 1545 1546 1547 1548
1479 1476 1476 1479 1481 1483 1482 1483 1482 1484 1484 1484 1486 1487 1483 1485 1490 1494 1497 1499 1502 1505 1508 1512 1515 1518 1521 1523 1525 1527 1529 1531 1533 1535 1537 1539 1540 1541 1543 1543 1544 1545 1546 1546
1475 1473 1478 1479 1480 1480 1483 1477 1480 1483 1487 1485 1486 1492 1481 1479 1484 1489 1492 1495 1497 1501 1504 1508 1511 1514 1517 1520 1522 1524 1526 1528 1530 1532 1534 1536 1538 1540 1541 1542 1543 1543 1544 1545
1474 1473 1477 1479 1476 1476 1476 1476 1480 1481 1483 1485 1483 1489 1480 1475 1481 1482 1486 1490 1493 1497 1500 1503 1507 1510 1514 1517 1519 1521 1523 1525 1527 1529 1531 1533 1535 1537 1539 1540 1541 1541 1542 1543
1470 1472 1473 1473 1473 1475 1478 1480 1482 1481 1480 1493 1484 1487 1484 1473 1476 1476 1480 1485 1489 1493 1496 1500 1504 1507 1510 1513 1516 1518 1519 1521 1524 1526 1528 1530 1532 1534 1536 1537 1538 1539 1540 1541
1474 1472 1472 1473 1475 1477 1478 1484 1494 1497 1493 1488 1476 1483 1478 1469 1471 1474 1477 1480 1485 1489 1492 1495 1499 1502 1505 1508 1510 1513 1515 1518 1520 1523 1525 1527 1529 1531 1532 1534 1536 1537 1538 1538
1475 1475 1469 1470 1471 1473 1474 1476 1492 1501 1493 1480 1479 1480 1470 1467 1471 1473 1476 1478 1481 1484 1488 1491 1494 1498 1501 1504 1507 1509 1512 1514 1517 1519 1521 1524 1525 1528 1530 1531 1533 1534 1535 1536
1465 1469 1464 1466 1467 1469 1473 1473 1468 1478 1480 1483 1474 1470 1467 1467 1469 1472 1474 1477 1479 1481 1484 1487 1490 1494 1497 1500 1503 1506 1508 1510 1513 1515 1518 1520 1522 1524 1526 1528 1529 1531 1531 1533
1460 1469 1463 1465 1467 1468 1466 1467 1472 1478 1491 1491 1479 1474 1468 1466 1466 1468 1471 1474 1477 1479 1482 1485 1488 1491 1494 1497 1500 1503 1505 1507 1510 1512 1515 1517 1519 1521 1523 1525 1526 1527 1528 1529
1460 1467 1465 1465 1467 1466 1470 1471 1471 1471 1472 1484 1485 1472 1455 1460 1464 1467 1470 1473 1476 1478 1480 1482 1485 1488 1491 1494 1497 1499 1501 1504 1507 1509 1511 1514 1516 1518 1520 1521 1522 1524 1525 1526
1462 1462 1464 1461 1459 1460 1461 1463 1467 1476 1478 1475 1475 1469 1457 1460 1463 1467 1470 1473 1476 1477 1479 1481 1483 1485 1488 1491 1494 1496 1498 1501 1503 1506 1508 1511 1513 1515 1516 1518 1519 1520 1521 1523
1463 1465 1472 1469 1466 1463 1462 1460 1460 1462 1466 1470 1474 1468 1458 1461 1465 1468 1471 1473 1475 1477 1478 1480 1481 1483 1485 1488 1491 1493 1496 1498 1501 1503 1505 1507 1509 1511 1513 1514 1515 1517 1518 1519
1466 1462 1465 1466 1457 1454 1460 1459 1459 1462 1464 1465 1463 1460 1457 1460 1463 1467 1470 1473 1474 1476 1477 1478 1480 1481 1484 1486 1488 1490 1493 1496 1498 1500 1502 1504 1506 1508 1509 1511 1512 1514 1515 1516
1463 1462 1459 1455 1452 1452 1455 1456 1457 1459 1457 1459 1455 1455 1454 1457 1462 1466 1469 1472 1473 1475 1476 1477 1478 1480 1482 1484 1486 1488 1491 1493 1495 1497 1499 1501 1503 1505 1506 1507 1509 1510 1511 1512
1462 1461 1459 1459 1453 1453 1454 1452 1453 1454 1453 1453 1453 1454 1453 1458 1462 1466 1468 1470 1472 1473 1475 1476 1477 1478 1480 1481 1483 1486 1488 1490 1492 1494 1496 1498 1500 1501 1503 1504 1505 1506 1507 1509
1461 1463 1464 1459 1452 1454 1457 1449 1448 1448 1448 1450 1452 1451 1454 1458 1461 1464 1467 1469 1470 1472 1473 1474 1476 1477 1478 1479 1481 1483 1485 1487 1489 1491 1493 1495 1497 1498 1500 1501 1502 1503 1504 1505
1463 1463 1460 1457 1459 1468 1445 1441 1443 1445 1446 1446 1448 1450 1454 1458 1461 1464 1466 1467 1469 1471 1472 1473 1474 1475 1477 1478 1480 1481 1483 1485 1487 1488 1490 1492 1493 1495 1496 1497 1498 1499 1500 1501
1459 1462 1460 1457 1457 1450 1443 1441 1443 1446 1446 1445 1447 1451 1455 1459 1460 1461 1464 1466 1468 1469 1470 1472 1473 1473 1475 1476 1477 1479 1480 1482 1484 1486 1487 1489 1490 1491 1492 1493 1494 1495 1496 1496
1456 1459 1459 1456 1458 1455 1440 1439 1444 1446 1448 1446 1448 1451 1454 1457 1456 1456 1462 1465 1466 1468 1469 1470 1471 1472 1473 1474 1475 1476 1478 1479 1481 1482 1484 1486 1487 1488 1489 1490 1491 1492 1492 1493
1453 1456 1455 1454 1453 1442 1438 1442 1445 1452 1446 1447 1449 1451 1454 1455 1455 1458 1461 1463 1465 1466 1467 1468 1470 1471 1471 1472 1473 1474 1475 1477 1478 1480 1481 1483 1484 1486 1486 1487 1488 1489 1489 1489
1446 1447 1451 1450 1452 1447 1442 1442 1444 1446 1448 1449 1450 1452 1454 1455 1457 1458 1460 1462 1464 1465 1466 1467 1468 1469 1469 1470 1471 1472 1473 1474 1476 1478 1479 1480 1481 1483 1484 1484 1485 1486 1486 1486
1443 1442 1439 1442 1444 1445 1445 1445 1447 1448 1448 1449 1450 1452 1453 1455 1456 1458 1460 1461 1463 1464 1464 1465 1466 1467 1468 1469 1469 1470 1471 1472 1473 1475 1476 1477 1479 1480 1481 1481 1482 1483 1483 1484
1443 1445 1443 1443 1442 1444 1446 1446 1447 1448 1448 1449 1450 1452 1453 1454 1455 1457 1459 1460 1462 1462 1463 1464 1465 1466 1467 1468 1468 1468 1469 1470 1471 1473 1474 1475 1476 1477 1478 1479 1480 1481 1481 1481
1443 1444 1442 1443 1443 1445 1445 1447 1447 1447 1447 1448 1449 1451 1452 1452 1454 1456 1457 1459 1460 1461 1463 1464 1464 1465 1466 1466 1466 1466 1467 1468 1469 1470 1471 1473 1474 1475 1476 1476 1477 1478 1478 1478
1443 1443 1442 1440 1442 1444 1444 1445 1446 1445 1446 1446 1448 1450 1451 1452 1454 1455 1456 1458 1459 1460 1461 1462 1463 1464 1465 1465 1465 1466 1466 1466 1467 1468 1469 1471 1472 1473 1474 1475 1476 1476 1476 1475